• En España
  • Lista de países
  • Para 7 días
  • Temperatura del agua
  • Mapa Satelital
  • El tiempo en el mapa
  • Informadores
  • user-avatar
    Iniciar sesión

    Tiempo cada hora Kekeshevo

    Hoy, 21 Abril, Sábado

    Tiempo Temperatura Precipitaciones Viento Presión Humedad
    00:00 +9°C° 0 mm 3 mps 735 mmHg 80%
    01:00 +8°C° 0 mm 4 mps 735 mmHg 84%
    02:00 +9°C° 0 mm 3 mps 733 mmHg 89%
    03:00 +9°C° 0 mm 3 mps 733 mmHg 90%
    04:00 +10°C° 0 mm 4 mps 732 mmHg 92%
    05:00 +10°C° 0 mm 4 mps 731 mmHg 93%
    06:00 +11°C° 0 mm 4 mps 730 mmHg 88%
    07:00 +10°C° 0 mm 5 mps 729 mmHg 82%
    08:00 +13°C° 0 mm 6 mps 727 mmHg 74%
    09:00 +14°C° 0 mm 6 mps 726 mmHg 70%
    10:00 +15°C° 0 mm 7 mps 725 mmHg 65%
    11:00 +17°C° 0 mm 7 mps 724 mmHg 61%
    12:00 +16°C° 0,7 mm 7 mps 724 mmHg 61%
    13:00 +15°C° 0,7 mm 8 mps 723 mmHg 61%
    14:00 +13°C° 0,7 mm 8 mps 723 mmHg 62%
    15:00 +12°C° 0,2 mm 8 mps 723 mmHg 63%
    16:00 +10°C° 0,2 mm 9 mps 723 mmHg 64%
    17:00 +7°C° 0,2 mm 9 mps 724 mmHg 65%
    18:00 +6°C° 0,1 mm 9 mps 724 mmHg 67%
    19:00 +5°C° 0,1 mm 9 mps 725 mmHg 69%
    20:00 +4°C° 0,1 mm 8 mps 725 mmHg 71%
    21:00 +4°C° 0,1 mm 8 mps 726 mmHg 72%
    22:00 +4°C° 0,1 mm 8 mps 726 mmHg 73%
    23:00 +3°C° 0,1 mm 7 mps 727 mmHg 74%

    Mañana, 22 Abril, Domingo

    Tiempo Temperatura Precipitaciones Viento Presión Humedad
    00:00 +3°C° 0 mm 7 mps 728 mmHg 75%
    01:00 +3°C° 0 mm 6 mps 728 mmHg 77%
    02:00 +2°C° 0 mm 5 mps 729 mmHg 78%
    03:00 +2°C° 0 mm 5 mps 729 mmHg 79%
    04:00 +2°C° 0 mm 5 mps 730 mmHg 80%
    05:00 +1°C° 0 mm 5 mps 730 mmHg 80%
    06:00 +1°C° 0 mm 4 mps 730 mmHg 79%
    07:00 +1°C° 0 mm 4 mps 731 mmHg 77%
    08:00 +1°C° 0 mm 4 mps 731 mmHg 75%
    09:00 +3°C° 0 mm 4 mps 731 mmHg 72%
    10:00 +3°C° 0 mm 4 mps 732 mmHg 69%
    11:00 +4°C° 0 mm 4 mps 732 mmHg 66%
    12:00 +4°C° 0 mm 4 mps 733 mmHg 65%
    13:00 +4°C° 0 mm 4 mps 733 mmHg 63%
    14:00 +4°C° 0 mm 4 mps 734 mmHg 61%
    15:00 +4°C° 0 mm 4 mps 734 mmHg 61%
    16:00 +4°C° 0 mm 4 mps 734 mmHg 61%
    17:00 +3°C° 0 mm 4 mps 735 mmHg 61%
    18:00 +1°C° 0 mm 4 mps 735 mmHg 63%
    19:00 +2°C° 0 mm 3 mps 736 mmHg 66%
    20:00 +1°C° 0 mm 3 mps 737 mmHg 69%
    21:00 +1°C° 0 mm 2 mps 737 mmHg 71%
    22:00 -1°C° 0 mm 2 mps 738 mmHg 74%
    23:00 -2°C° 0 mm 2 mps 738 mmHg 77%

    Pasado mañana, 23 Abril, Lunes

    Tiempo Temperatura Precipitaciones Viento Presión Humedad
    00:00 -2°C° 0 mm 2 mps 738 mmHg 78%
    01:00 -3°C° 0 mm 2 mps 739 mmHg 79%
    02:00 -3°C° 0 mm 2 mps 739 mmHg 81%
    03:00 -3°C° 0 mm 2 mps 740 mmHg 81%
    04:00 -3°C° 0 mm 2 mps 740 mmHg 81%
    05:00 -3°C° 0 mm 2 mps 740 mmHg 81%
    06:00 -2°C° 0 mm 2 mps 740 mmHg 71%
    07:00 +1°C° 0 mm 2 mps 741 mmHg 61%
    08:00 +1°C° 0 mm 3 mps 741 mmHg 51%
    09:00 +2°C° 0 mm 3 mps 741 mmHg 47%
    10:00 +3°C° 0 mm 3 mps 741 mmHg 43%
    11:00 +4°C° 0 mm 3 mps 741 mmHg 38%
    12:00 +5°C° 0 mm 3 mps 741 mmHg 38%
    13:00 +7°C° 0 mm 2 mps 741 mmHg 37%
    14:00 +7°C° 0 mm 2 mps 741 mmHg 36%
    15:00 +7°C° 0 mm 2 mps 740 mmHg 38%
    16:00 +7°C° 0 mm 2 mps 740 mmHg 39%
    17:00 +6°C° 0 mm 2 mps 740 mmHg 41%
    18:00 +5°C° 0 mm 2 mps 740 mmHg 49%
    19:00 +4°C° 0 mm 1 mps 740 mmHg 56%
    20:00 +2°C° 0 mm 1 mps 741 mmHg 64%
    21:00 0°C° 0 mm 0 mps 740 mmHg 65%
    22:00 0°C° 0 mm 0 mps 740 mmHg 67%
    23:00 -1°C° 0 mm 0 mps 740 mmHg 68%

    24 Abril, Martes

    Tiempo Temperatura Precipitaciones Viento Presión Humedad
    00:00 -1°C° 0 mm 0 mps 740 mmHg 68%
    01:00 0°C° 0 mm 1 mps 740 mmHg 69%
    02:00 0°C° 0 mm 1 mps 740 mmHg 69%
    03:00 0°C° 0 mm 1 mps 740 mmHg 69%
    04:00 0°C° 0 mm 1 mps 740 mmHg 68%
    05:00 -2°C° 0 mm 2 mps 740 mmHg 68%
    06:00 +1°C° 0 mm 2 mps 739 mmHg 61%
    07:00 +3°C° 0 mm 2 mps 739 mmHg 54%
    08:00 +4°C° 0 mm 3 mps 739 mmHg 47%
    09:00 +7°C° 0 mm 3 mps 739 mmHg 45%
    10:00 +8°C° 0 mm 3 mps 738 mmHg 42%
    11:00 +10°C° 0 mm 3 mps 738 mmHg 40%
    12:00 +10°C° 0 mm 4 mps 738 mmHg 42%
    13:00 +11°C° 0 mm 4 mps 737 mmHg 43%
    14:00 +11°C° 0 mm 4 mps 737 mmHg 44%
    15:00 +10°C° 0 mm 4 mps 736 mmHg 50%
    16:00 +10°C° 0 mm 3 mps 736 mmHg 56%
    17:00 +9°C° 0 mm 3 mps 736 mmHg 62%
    18:00 +8°C° 0,2 mm 3 mps 735 mmHg 70%
    19:00 +7°C° 0,2 mm 3 mps 735 mmHg 78%
    20:00 +5°C° 0,2 mm 3 mps 735 mmHg 86%
    21:00 +5°C° 0,1 mm 3 mps 735 mmHg 89%
    22:00 +5°C° 0,1 mm 3 mps 734 mmHg 91%
    23:00 +5°C° 0,1 mm 3 mps 734 mmHg 93%

    25 Abril, Miércoles

    Tiempo Temperatura Precipitaciones Viento Presión Humedad
    00:00 +5°C° 0,1 mm 3 mps 734 mmHg 94%
    01:00 +5°C° 0,1 mm 3 mps 734 mmHg 95%
    02:00 +5°C° 0,1 mm 3 mps 733 mmHg 95%
    03:00 +5°C° 0 mm 3 mps 733 mmHg 95%
    04:00 +5°C° 0 mm 3 mps 732 mmHg 94%
    05:00 +5°C° 0 mm 3 mps 732 mmHg 94%
    06:00 +5°C° 0,5 mm 3 mps 731 mmHg 92%
    07:00 +5°C° 0,5 mm 4 mps 731 mmHg 90%
    08:00 +6°C° 0,5 mm 4 mps 730 mmHg 88%
    09:00 +6°C° 0,6 mm 4 mps 730 mmHg 88%
    10:00 +6°C° 0,6 mm 4 mps 730 mmHg 87%
    11:00 +6°C° 0,6 mm 4 mps 730 mmHg 87%
    12:00 +7°C° 0,3 mm 4 mps 730 mmHg 79%
    13:00 +8°C° 0,3 mm 5 mps 730 mmHg 72%
    14:00 +9°C° 0,3 mm 5 mps 730 mmHg 65%
    15:00 +9°C° 0,3 mm 5 mps 730 mmHg 67%
    16:00 +8°C° 0,3 mm 5 mps 730 mmHg 69%
    17:00 +8°C° 0,3 mm 5 mps 731 mmHg 72%
    18:00 +7°C° 0,3 mm 4 mps 731 mmHg 77%
    19:00 +6°C° 0,3 mm 4 mps 731 mmHg 82%
    20:00 +5°C° 0,3 mm 3 mps 732 mmHg 88%
    21:00 +5°C° 0,3 mm 3 mps 732 mmHg 89%
    22:00 +5°C° 0,3 mm 3 mps 732 mmHg 90%
    23:00 +4°C° 0,3 mm 3 mps 732 mmHg 91%

    26 Abril, Jueves

    Tiempo Temperatura Precipitaciones Viento Presión Humedad
    00:00 +4°C° 0,1 mm 3 mps 733 mmHg 92%
    01:00 +4°C° 0,1 mm 3 mps 733 mmHg 92%
    02:00 +4°C° 0,1 mm 3 mps 733 mmHg 92%
    03:00 +4°C° 0 mm 3 mps 733 mmHg 92%
    04:00 +3°C° 0 mm 3 mps 733 mmHg 93%
    05:00 +3°C° 0 mm 3 mps 733 mmHg 94%
    06:00 +4°C° 0 mm 3 mps 734 mmHg 91%
    07:00 +4°C° 0 mm 3 mps 734 mmHg 88%
    08:00 +5°C° 0 mm 3 mps 734 mmHg 85%
    09:00 +7°C° 0 mm 3 mps 734 mmHg 81%
    10:00 +8°C° 0 mm 3 mps 734 mmHg 77%
    11:00 +9°C° 0 mm 3 mps 734 mmHg 73%
    12:00 +9°C° 0 mm 3 mps 734 mmHg 73%
    13:00 +8°C° 0 mm 3 mps 734 mmHg 73%
    14:00 +8°C° 0 mm 3 mps 734 mmHg 72%
    15:00 +8°C° 0 mm 3 mps 733 mmHg 72%
    16:00 +8°C° 0 mm 2 mps 733 mmHg 72%
    17:00 +8°C° 0 mm 2 mps 733 mmHg 72%
    18:00 +8°C° 0 mm 2 mps 733 mmHg 77%
    19:00 +7°C° 0 mm 2 mps 733 mmHg 83%
    20:00 +6°C° 0 mm 2 mps 733 mmHg 88%
    21:00 +5°C° 0 mm 2 mps 733 mmHg 90%
    22:00 +5°C° 0 mm 2 mps 733 mmHg 93%
    23:00 +5°C° 0 mm 2 mps 733 mmHg 95%
    Mostrar más